Year,Month,Day,Hour,Minute,Value (Times are PST for insolation in W/m^2)
2014,03,28,00,00,0.00
2014,03,28,00,01,0.00
2014,03,28,00,02,0.00
2014,03,28,00,03,0.00
2014,03,28,00,04,0.00
2014,03,28,00,05,0.00
2014,03,28,00,06,0.00
2014,03,28,00,07,0.00
2014,03,28,00,08,0.00
2014,03,28,00,09,0.00
2014,03,28,00,10,0.00
2014,03,28,00,11,0.00
2014,03,28,00,12,0.00
2014,03,28,00,13,0.00
2014,03,28,00,14,0.00
2014,03,28,00,15,0.00
2014,03,28,00,16,0.00
2014,03,28,00,17,0.00
2014,03,28,00,18,0.00
2014,03,28,00,19,0.00
2014,03,28,00,20,0.00
2014,03,28,00,21,0.00
2014,03,28,00,22,0.00
2014,03,28,00,23,0.00
2014,03,28,00,24,0.00
2014,03,28,00,25,0.00
2014,03,28,00,26,0.00
2014,03,28,00,27,0.00
2014,03,28,00,28,0.00
2014,03,28,00,29,0.00
2014,03,28,00,30,0.00
2014,03,28,00,31,0.00
2014,03,28,00,32,0.00
2014,03,28,00,33,0.00
2014,03,28,00,34,0.00
2014,03,28,00,35,0.00
2014,03,28,00,36,0.00
2014,03,28,00,37,0.00
2014,03,28,00,38,0.00
2014,03,28,00,39,0.00
2014,03,28,00,40,0.00
2014,03,28,00,41,0.00
2014,03,28,00,42,0.00
2014,03,28,00,43,0.00
2014,03,28,00,44,0.00
2014,03,28,00,45,0.00
2014,03,28,00,46,0.00
2014,03,28,00,47,0.00
2014,03,28,00,48,0.00
2014,03,28,00,49,0.00
2014,03,28,00,50,0.00
2014,03,28,00,51,0.00
2014,03,28,00,52,0.00
2014,03,28,00,53,0.00
2014,03,28,00,54,0.00
2014,03,28,00,55,0.00
2014,03,28,00,56,0.00
2014,03,28,00,57,0.00
2014,03,28,00,58,0.00
2014,03,28,00,59,0.00
2014,03,28,01,00,0.00
2014,03,28,01,01,0.00
2014,03,28,01,02,0.00
2014,03,28,01,03,0.00
2014,03,28,01,04,0.00
2014,03,28,01,05,0.00
2014,03,28,01,06,0.00
2014,03,28,01,07,0.00
2014,03,28,01,08,0.00
2014,03,28,01,09,0.00
2014,03,28,01,10,0.00
2014,03,28,01,11,0.00
2014,03,28,01,12,0.00
2014,03,28,01,13,0.00
2014,03,28,01,14,0.00
2014,03,28,01,15,0.00
2014,03,28,01,16,0.00
2014,03,28,01,17,0.00
2014,03,28,01,18,0.00
2014,03,28,01,19,0.00
2014,03,28,01,20,0.00
2014,03,28,01,21,0.00
2014,03,28,01,22,0.00
2014,03,28,01,23,0.00
2014,03,28,01,24,0.00
2014,03,28,01,25,0.00
2014,03,28,01,26,0.00
2014,03,28,01,27,0.00
2014,03,28,01,28,0.00
2014,03,28,01,29,0.00
2014,03,28,01,30,0.00
2014,03,28,01,31,0.00
2014,03,28,01,32,0.00
2014,03,28,01,33,0.00
2014,03,28,01,34,0.00
2014,03,28,01,35,0.00
2014,03,28,01,36,0.00
2014,03,28,01,37,0.00
2014,03,28,01,38,0.00
2014,03,28,01,39,0.00
2014,03,28,01,40,0.00
2014,03,28,01,41,0.00
2014,03,28,01,42,0.00
2014,03,28,01,43,0.00
2014,03,28,01,44,0.00
2014,03,28,01,45,0.00
2014,03,28,01,46,0.00
2014,03,28,01,47,0.00
2014,03,28,01,48,0.00
2014,03,28,01,49,0.00
2014,03,28,01,50,0.00
2014,03,28,01,51,0.00
2014,03,28,01,52,0.00
2014,03,28,01,53,0.00
2014,03,28,01,54,0.00
2014,03,28,01,55,0.00
2014,03,28,01,56,0.00
2014,03,28,01,57,0.00
2014,03,28,01,58,0.00
2014,03,28,01,59,0.00
2014,03,28,02,00,0.00
2014,03,28,02,01,0.00
2014,03,28,02,02,0.00
2014,03,28,02,03,0.00
2014,03,28,02,04,0.00
2014,03,28,02,05,0.00
2014,03,28,02,06,0.00
2014,03,28,02,07,0.00
2014,03,28,02,08,0.00
2014,03,28,02,09,0.00
2014,03,28,02,10,0.00
2014,03,28,02,11,0.00
2014,03,28,02,12,0.00
2014,03,28,02,13,0.00
2014,03,28,02,14,0.00
2014,03,28,02,15,0.00
2014,03,28,02,16,0.00
2014,03,28,02,17,0.00
2014,03,28,02,18,0.00
2014,03,28,02,19,0.00
2014,03,28,02,20,0.00
2014,03,28,02,21,0.00
2014,03,28,02,22,0.00
2014,03,28,02,23,0.00
2014,03,28,02,24,0.00
2014,03,28,02,25,0.00
2014,03,28,02,26,0.00
2014,03,28,02,27,0.00
2014,03,28,02,28,0.00
2014,03,28,02,29,0.00
2014,03,28,02,30,0.00
2014,03,28,02,31,0.00
2014,03,28,02,32,0.00
2014,03,28,02,33,0.00
2014,03,28,02,34,0.00
2014,03,28,02,35,0.00
2014,03,28,02,36,0.00
2014,03,28,02,37,0.00
2014,03,28,02,38,0.00
2014,03,28,02,39,0.00
2014,03,28,02,40,0.00
2014,03,28,02,41,0.00
2014,03,28,02,42,0.00
2014,03,28,02,43,0.00
2014,03,28,02,44,0.00
2014,03,28,02,45,0.00
2014,03,28,02,46,0.00
2014,03,28,02,47,0.00
2014,03,28,02,48,0.00
2014,03,28,02,49,0.00
2014,03,28,02,50,0.00
2014,03,28,02,51,0.00
2014,03,28,02,52,0.00
2014,03,28,02,53,0.00
2014,03,28,02,54,0.00
2014,03,28,02,55,0.00
2014,03,28,02,56,0.00
2014,03,28,02,57,0.00
2014,03,28,02,58,0.00
2014,03,28,02,59,0.00
2014,03,28,03,00,0.00
2014,03,28,03,01,0.00
2014,03,28,03,02,0.00
2014,03,28,03,03,0.00
2014,03,28,03,04,0.00
2014,03,28,03,05,0.00
2014,03,28,03,06,0.00
2014,03,28,03,07,0.00
2014,03,28,03,08,0.00
2014,03,28,03,09,0.00
2014,03,28,03,10,0.00
2014,03,28,03,11,0.00
2014,03,28,03,12,0.00
2014,03,28,03,13,0.00
2014,03,28,03,14,0.00
2014,03,28,03,15,0.00
2014,03,28,03,16,0.00
2014,03,28,03,17,0.00
2014,03,28,03,18,0.00
2014,03,28,03,19,0.00
2014,03,28,03,20,0.00
2014,03,28,03,21,0.00
2014,03,28,03,22,0.00
2014,03,28,03,23,0.00
2014,03,28,03,24,0.00
2014,03,28,03,25,0.00
2014,03,28,03,26,0.00
2014,03,28,03,27,0.00
2014,03,28,03,28,0.00
2014,03,28,03,29,0.00
2014,03,28,03,30,0.00
2014,03,28,03,31,0.00
2014,03,28,03,32,0.00
2014,03,28,03,33,0.00
2014,03,28,03,34,0.00
2014,03,28,03,35,0.00
2014,03,28,03,36,0.00
2014,03,28,03,37,0.00
2014,03,28,03,38,0.00
2014,03,28,03,39,0.00
2014,03,28,03,40,0.00
2014,03,28,03,41,0.00
2014,03,28,03,42,0.00
2014,03,28,03,43,0.00
2014,03,28,03,44,0.00
2014,03,28,03,45,0.00
2014,03,28,03,46,0.00
2014,03,28,03,47,0.00
2014,03,28,03,48,0.00
2014,03,28,03,49,0.00
2014,03,28,03,50,0.00
2014,03,28,03,51,0.00
2014,03,28,03,52,0.00
2014,03,28,03,53,0.00
2014,03,28,03,54,0.00
2014,03,28,03,55,0.00
2014,03,28,03,56,0.00
2014,03,28,03,57,0.00
2014,03,28,03,58,0.00
2014,03,28,03,59,0.00
2014,03,28,04,00,0.00
2014,03,28,04,01,0.00
2014,03,28,04,02,0.00
2014,03,28,04,03,0.00
2014,03,28,04,04,0.00
2014,03,28,04,05,0.00
2014,03,28,04,06,0.00
2014,03,28,04,07,0.00
2014,03,28,04,08,0.00
2014,03,28,04,09,0.00
2014,03,28,04,10,0.00
2014,03,28,04,11,0.00
2014,03,28,04,12,0.00
2014,03,28,04,13,0.00
2014,03,28,04,14,0.00
2014,03,28,04,15,0.00
2014,03,28,04,16,0.00
2014,03,28,04,17,0.00
2014,03,28,04,18,0.00
2014,03,28,04,19,0.00
2014,03,28,04,20,0.00
2014,03,28,04,21,0.00
2014,03,28,04,22,0.00
2014,03,28,04,23,0.00
2014,03,28,04,24,0.00
2014,03,28,04,25,0.00
2014,03,28,04,26,0.00
2014,03,28,04,27,0.00
2014,03,28,04,28,0.00
2014,03,28,04,29,0.00
2014,03,28,04,30,0.00
2014,03,28,04,31,0.00
2014,03,28,04,32,0.00
2014,03,28,04,33,0.00
2014,03,28,04,34,0.00
2014,03,28,04,35,0.00
2014,03,28,04,36,0.00
2014,03,28,04,37,0.00
2014,03,28,04,38,0.00
2014,03,28,04,39,0.00
2014,03,28,04,40,0.00
2014,03,28,04,41,0.00
2014,03,28,04,42,0.00
2014,03,28,04,43,0.00
2014,03,28,04,44,0.00
2014,03,28,04,45,0.00
2014,03,28,04,46,0.00
2014,03,28,04,47,0.00
2014,03,28,04,48,0.00
2014,03,28,04,49,0.00
2014,03,28,04,50,0.00
2014,03,28,04,51,0.00
2014,03,28,04,52,0.00
2014,03,28,04,53,0.00
2014,03,28,04,54,0.00
2014,03,28,04,55,0.00
2014,03,28,04,56,0.00
2014,03,28,04,57,0.00
2014,03,28,04,58,0.00
2014,03,28,04,59,0.00
2014,03,28,05,00,0.00
2014,03,28,05,01,0.00
2014,03,28,05,02,0.00
2014,03,28,05,03,0.00
2014,03,28,05,04,0.00
2014,03,28,05,05,0.00
2014,03,28,05,06,0.00
2014,03,28,05,07,0.00
2014,03,28,05,08,0.00
2014,03,28,05,09,0.00
2014,03,28,05,10,0.00
2014,03,28,05,11,0.00
2014,03,28,05,12,0.00
2014,03,28,05,13,0.00
2014,03,28,05,14,0.00
2014,03,28,05,15,0.00
2014,03,28,05,16,0.00
2014,03,28,05,17,0.00
2014,03,28,05,18,0.00
2014,03,28,05,19,0.00
2014,03,28,05,20,0.00
2014,03,28,05,21,0.00
2014,03,28,05,22,0.00
2014,03,28,05,23,0.00
2014,03,28,05,24,0.00
2014,03,28,05,25,0.00
2014,03,28,05,26,0.00
2014,03,28,05,27,0.00
2014,03,28,05,28,0.00
2014,03,28,05,29,0.00
2014,03,28,05,30,0.00
2014,03,28,05,31,0.00
2014,03,28,05,32,0.00
2014,03,28,05,33,0.00
2014,03,28,05,34,0.00
2014,03,28,05,35,0.00
2014,03,28,05,36,0.00
2014,03,28,05,37,0.00
2014,03,28,05,38,0.00
2014,03,28,05,39,0.00
2014,03,28,05,40,0.00
2014,03,28,05,41,0.00
2014,03,28,05,42,0.00
2014,03,28,05,43,0.00
2014,03,28,05,44,0.00
2014,03,28,05,45,0.00
2014,03,28,05,46,0.00
2014,03,28,05,47,0.00
2014,03,28,05,48,0.00
2014,03,28,05,49,0.00
2014,03,28,05,50,0.00
2014,03,28,05,51,0.00
2014,03,28,05,52,0.00
2014,03,28,05,53,0.00
2014,03,28,05,54,0.00
2014,03,28,05,55,0.00
2014,03,28,05,56,0.00
2014,03,28,05,57,0.00
2014,03,28,05,58,0.00
2014,03,28,05,59,0.00
2014,03,28,06,00,0.00
2014,03,28,06,01,0.00
2014,03,28,06,02,0.00
2014,03,28,06,03,0.00
2014,03,28,06,04,0.00
2014,03,28,06,05,0.00
2014,03,28,06,06,0.00
2014,03,28,06,07,0.00
2014,03,28,06,08,0.00
2014,03,28,06,09,0.00
2014,03,28,06,10,0.00
2014,03,28,06,11,0.00
2014,03,28,06,12,0.00
2014,03,28,06,13,0.00
2014,03,28,06,14,0.00
2014,03,28,06,15,0.00
2014,03,28,06,16,0.00
2014,03,28,06,17,0.00
2014,03,28,06,18,0.00
2014,03,28,06,19,0.00
2014,03,28,06,20,0.00
2014,03,28,06,21,0.00
2014,03,28,06,22,0.00
2014,03,28,06,23,0.00
2014,03,28,06,24,0.00
2014,03,28,06,25,0.00
2014,03,28,06,26,0.00
2014,03,28,06,27,0.00
2014,03,28,06,28,0.00
2014,03,28,06,29,0.00
2014,03,28,06,30,0.00
2014,03,28,06,31,0.00
2014,03,28,06,32,0.00
2014,03,28,06,33,0.00
2014,03,28,06,34,0.00
2014,03,28,06,35,0.00
2014,03,28,06,36,0.00
2014,03,28,06,37,0.00
2014,03,28,06,38,0.00
2014,03,28,06,39,0.00
2014,03,28,06,40,0.00
2014,03,28,06,41,0.00
2014,03,28,06,42,0.00
2014,03,28,06,43,0.00
2014,03,28,06,44,0.00
2014,03,28,06,45,0.00
2014,03,28,06,46,0.00
2014,03,28,06,47,0.00
2014,03,28,06,48,0.00
2014,03,28,06,49,0.00
2014,03,28,06,50,0.00
2014,03,28,06,51,0.00
2014,03,28,06,52,0.00
2014,03,28,06,53,0.00
2014,03,28,06,54,0.00
2014,03,28,06,55,0.00
2014,03,28,06,56,0.00
2014,03,28,06,57,0.00
2014,03,28,06,58,0.00
2014,03,28,06,59,0.00
2014,03,28,07,00,0.00
2014,03,28,07,01,0.00
2014,03,28,07,02,0.00
2014,03,28,07,03,0.00
2014,03,28,07,04,0.00
2014,03,28,07,05,0.00
2014,03,28,07,06,0.00
2014,03,28,07,07,0.00
2014,03,28,07,08,0.00
2014,03,28,07,09,0.00
2014,03,28,07,10,0.00
2014,03,28,07,11,0.00
2014,03,28,07,12,0.00
2014,03,28,07,13,0.00
2014,03,28,07,14,0.00
2014,03,28,07,15,0.00
2014,03,28,07,16,0.00
2014,03,28,07,17,0.00
2014,03,28,07,18,0.00
2014,03,28,07,19,0.00
2014,03,28,07,20,0.00
2014,03,28,07,21,0.00
2014,03,28,07,22,0.00
2014,03,28,07,23,0.00
2014,03,28,07,24,0.00
2014,03,28,07,25,0.00
2014,03,28,07,26,3.20
2014,03,28,07,27,5.00
2014,03,28,07,28,5.00
2014,03,28,07,29,5.00
2014,03,28,07,30,5.00
2014,03,28,07,31,5.50
2014,03,28,07,32,7.00
2014,03,28,07,33,7.00
2014,03,28,07,34,8.10
2014,03,28,07,35,9.00
2014,03,28,07,36,9.00
2014,03,28,07,37,9.00
2014,03,28,07,38,9.20
2014,03,28,07,39,10.60
2014,03,28,07,40,9.00
2014,03,28,07,41,9.00
2014,03,28,07,42,9.00
2014,03,28,07,43,9.00
2014,03,28,07,44,9.00
2014,03,28,07,45,9.00
2014,03,28,07,46,9.00
2014,03,28,07,47,9.00
2014,03,28,07,48,9.00
2014,03,28,07,49,9.00
2014,03,28,07,50,9.00
2014,03,28,07,51,9.00
2014,03,28,07,52,9.00
2014,03,28,07,53,9.00
2014,03,28,07,54,9.00
2014,03,28,07,55,9.00
2014,03,28,07,56,9.00
2014,03,28,07,57,9.00
2014,03,28,07,58,9.80
2014,03,28,07,59,11.00
2014,03,28,08,00,11.00
2014,03,28,08,01,11.00
2014,03,28,08,02,11.00
2014,03,28,08,03,11.00
2014,03,28,08,04,11.00
2014,03,28,08,05,11.20
2014,03,28,08,06,12.00
2014,03,28,08,07,12.00
2014,03,28,08,08,11.50
2014,03,28,08,09,11.60
2014,03,28,08,10,12.00
2014,03,28,08,11,12.00
2014,03,28,08,12,15.60
2014,03,28,08,13,12.00
2014,03,28,08,14,12.50
2014,03,28,08,15,14.00
2014,03,28,08,16,14.00
2014,03,28,08,17,14.00
2014,03,28,08,18,15.30
2014,03,28,08,19,14.40
2014,03,28,08,20,12.30
2014,03,28,08,21,15.40
2014,03,28,08,22,12.60
2014,03,28,08,23,16.00
2014,03,28,08,24,15.30
2014,03,28,08,25,16.10
2014,03,28,08,26,16.80
2014,03,28,08,27,16.00
2014,03,28,08,28,16.00
2014,03,28,08,29,17.80
2014,03,28,08,30,18.90
2014,03,28,08,31,18.20
2014,03,28,08,32,20.90
2014,03,28,08,33,23.30
2014,03,28,08,34,19.90
2014,03,28,08,35,21.40
2014,03,28,08,36,19.20
2014,03,28,08,37,14.60
2014,03,28,08,38,14.20
2014,03,28,08,39,19.30
2014,03,28,08,40,21.50
2014,03,28,08,41,26.10
2014,03,28,08,42,29.30
2014,03,28,08,43,24.40
2014,03,28,08,44,24.40
2014,03,28,08,45,25.00
2014,03,28,08,46,25.00
2014,03,28,08,47,31.00
2014,03,28,08,48,41.20
2014,03,28,08,49,46.00
2014,03,28,08,50,47.20
2014,03,28,08,51,53.70
2014,03,28,08,52,51.20
2014,03,28,08,53,43.50
2014,03,28,08,54,46.00
2014,03,28,08,55,46.10
2014,03,28,08,56,46.30
2014,03,28,08,57,38.80
2014,03,28,08,58,35.00
2014,03,28,08,59,38.20
2014,03,28,09,00,44.20
2014,03,28,09,01,43.40
2014,03,28,09,02,42.00
2014,03,28,09,03,48.30
2014,03,28,09,04,45.80
2014,03,28,09,05,40.00
2014,03,28,09,06,41.00
2014,03,28,09,07,42.40
2014,03,28,09,08,37.50
2014,03,28,09,09,35.00
2014,03,28,09,10,37.80
2014,03,28,09,11,30.10
2014,03,28,09,12,28.00
2014,03,28,09,13,49.70
2014,03,28,09,14,39.80
2014,03,28,09,15,37.40
2014,03,28,09,16,47.00
2014,03,28,09,17,44.50
2014,03,28,09,18,40.00
2014,03,28,09,19,45.30
2014,03,28,09,20,50.40
2014,03,28,09,21,58.60
2014,03,28,09,22,69.80
2014,03,28,09,23,66.60
2014,03,28,09,24,65.60
2014,03,28,09,25,76.00
2014,03,28,09,26,72.20
2014,03,28,09,27,73.90
2014,03,28,09,28,78.40
2014,03,28,09,29,80.80
2014,03,28,09,30,63.60
2014,03,28,09,31,60.00
2014,03,28,09,32,59.40
2014,03,28,09,33,59.60
2014,03,28,09,34,62.00
2014,03,28,09,35,62.00
2014,03,28,09,36,65.50
2014,03,28,09,37,72.60
2014,03,28,09,38,76.10
2014,03,28,09,39,79.60
2014,03,28,09,40,82.60
2014,03,28,09,41,78.00
2014,03,28,09,42,67.50
2014,03,28,09,43,58.70
2014,03,28,09,44,60.10
2014,03,28,09,45,62.00
2014,03,28,09,46,79.10
2014,03,28,09,47,95.00
2014,03,28,09,48,102.00
2014,03,28,09,49,101.50
2014,03,28,09,50,100.70
2014,03,28,09,51,99.60
2014,03,28,09,52,95.80
2014,03,28,09,53,95.00
2014,03,28,09,54,91.80
2014,03,28,09,55,91.10
2014,03,28,09,56,93.70
2014,03,28,09,57,101.80
2014,03,28,09,58,107.80
2014,03,28,09,59,97.30
2014,03,28,10,00,78.50
2014,03,28,10,01,59.70
2014,03,28,10,02,51.80
2014,03,28,10,03,52.70
2014,03,28,10,04,63.00
2014,03,28,10,05,73.70
2014,03,28,10,06,69.60
2014,03,28,10,07,59.60
2014,03,28,10,08,54.00
2014,03,28,10,09,49.90
2014,03,28,10,10,46.30
2014,03,28,10,11,46.80
2014,03,28,10,12,52.10
2014,03,28,10,13,60.10
2014,03,28,10,14,63.50
2014,03,28,10,15,56.60
2014,03,28,10,16,53.40
2014,03,28,10,17,61.50
2014,03,28,10,18,69.60
2014,03,28,10,19,71.50
2014,03,28,10,20,73.60
2014,03,28,10,21,70.10
2014,03,28,10,22,65.20
2014,03,28,10,23,69.90
2014,03,28,10,24,83.20
2014,03,28,10,25,104.50
2014,03,28,10,26,145.30
2014,03,28,10,27,188.40
2014,03,28,10,28,229.90
2014,03,28,10,29,213.80
2014,03,28,10,30,213.90
2014,03,28,10,31,235.60
2014,03,28,10,32,237.00
2014,03,28,10,33,237.50
2014,03,28,10,34,197.00
2014,03,28,10,35,165.80
2014,03,28,10,36,177.60
2014,03,28,10,37,166.80
2014,03,28,10,38,163.00
2014,03,28,10,39,168.00
2014,03,28,10,40,135.60
2014,03,28,10,41,110.00
2014,03,28,10,42,98.40
2014,03,28,10,43,91.30
2014,03,28,10,44,86.10
2014,03,28,10,45,86.80
2014,03,28,10,46,82.10
2014,03,28,10,47,85.90
2014,03,28,10,48,90.00
2014,03,28,10,49,92.00
2014,03,28,10,50,96.00
2014,03,28,10,51,93.00
2014,03,28,10,52,87.90
2014,03,28,10,53,88.20
2014,03,28,10,54,94.00
2014,03,28,10,55,101.30
2014,03,28,10,56,104.90
2014,03,28,10,57,112.60
2014,03,28,10,58,109.40
2014,03,28,10,59,108.40
2014,03,28,11,00,113.50
2014,03,28,11,01,112.20
2014,03,28,11,02,111.00
2014,03,28,11,03,105.30
2014,03,28,11,04,93.20
2014,03,28,11,05,85.00
2014,03,28,11,06,77.80
2014,03,28,11,07,72.70
2014,03,28,11,08,70.00
2014,03,28,11,09,72.20
2014,03,28,11,10,70.80
2014,03,28,11,11,66.00
2014,03,28,11,12,65.00
2014,03,28,11,13,59.70
2014,03,28,11,14,55.60
2014,03,28,11,15,62.30
2014,03,28,11,16,63.00
2014,03,28,11,17,66.00
2014,03,28,11,18,69.00
2014,03,28,11,19,79.00
2014,03,28,11,20,91.30
2014,03,28,11,21,97.80
2014,03,28,11,22,104.30
2014,03,28,11,23,108.40
2014,03,28,11,24,113.30
2014,03,28,11,25,113.60
2014,03,28,11,26,109.90
2014,03,28,11,27,107.00
2014,03,28,11,28,115.20
2014,03,28,11,29,128.10
2014,03,28,11,30,133.20
2014,03,28,11,31,123.90
2014,03,28,11,32,119.20
2014,03,28,11,33,123.00
2014,03,28,11,34,131.60
2014,03,28,11,35,138.10
2014,03,28,11,36,130.40
2014,03,28,11,37,128.00
2014,03,28,11,38,136.10
2014,03,28,11,39,149.20
2014,03,28,11,40,127.00
2014,03,28,11,41,104.80
2014,03,28,11,42,101.60
2014,03,28,11,43,102.00
2014,03,28,11,44,95.70
2014,03,28,11,45,94.40
2014,03,28,11,46,102.30
2014,03,28,11,47,90.90
2014,03,28,11,48,77.20
2014,03,28,11,49,79.00
2014,03,28,11,50,80.80
2014,03,28,11,51,83.60
2014,03,28,11,52,84.70
2014,03,28,11,53,86.00
2014,03,28,11,54,78.50
2014,03,28,11,55,76.00
2014,03,28,11,56,73.60
2014,03,28,11,57,62.30
2014,03,28,11,58,58.00
2014,03,28,11,59,60.60
2014,03,28,12,00,74.40
2014,03,28,12,01,90.20
2014,03,28,12,02,91.60
2014,03,28,12,03,77.40
2014,03,28,12,04,69.50
2014,03,28,12,05,77.50
2014,03,28,12,06,95.00
2014,03,28,12,07,123.60
2014,03,28,12,08,153.00
2014,03,28,12,09,134.50
2014,03,28,12,10,102.20
2014,03,28,12,11,110.90
2014,03,28,12,12,155.40
2014,03,28,12,13,177.00
2014,03,28,12,14,171.10
2014,03,28,12,15,153.20
2014,03,28,12,16,140.30
2014,03,28,12,17,121.80
2014,03,28,12,18,118.00
2014,03,28,12,19,121.50
2014,03,28,12,20,114.00
2014,03,28,12,21,105.90
2014,03,28,12,22,113.40
2014,03,28,12,23,138.80
2014,03,28,12,24,155.60
2014,03,28,12,25,154.00
2014,03,28,12,26,135.00
2014,03,28,12,27,126.30
2014,03,28,12,28,136.20
2014,03,28,12,29,163.70
2014,03,28,12,30,216.80
2014,03,28,12,31,236.20
2014,03,28,12,32,185.60
2014,03,28,12,33,164.40
2014,03,28,12,34,175.90
2014,03,28,12,35,200.40
2014,03,28,12,36,214.90
2014,03,28,12,37,217.50
2014,03,28,12,38,241.40
2014,03,28,12,39,252.50
2014,03,28,12,40,234.00
2014,03,28,12,41,216.00
2014,03,28,12,42,172.80
2014,03,28,12,43,182.70
2014,03,28,12,44,215.20
2014,03,28,12,45,239.70
2014,03,28,12,46,214.60
2014,03,28,12,47,174.60
2014,03,28,12,48,172.00
2014,03,28,12,49,181.00
2014,03,28,12,50,181.00
2014,03,28,12,51,208.00
2014,03,28,12,52,219.40
2014,03,28,12,53,171.40
2014,03,28,12,54,150.10
2014,03,28,12,55,152.00
2014,03,28,12,56,151.70
2014,03,28,12,57,120.80
2014,03,28,12,58,97.00
2014,03,28,12,59,100.50
2014,03,28,13,00,107.00
2014,03,28,13,01,124.40
2014,03,28,13,02,149.40
2014,03,28,13,03,169.50
2014,03,28,13,04,192.00
2014,03,28,13,05,212.00
2014,03,28,13,06,221.60
2014,03,28,13,07,226.50
2014,03,28,13,08,233.60
2014,03,28,13,09,245.00
2014,03,28,13,10,256.60
2014,03,28,13,11,261.50
2014,03,28,13,12,253.20
2014,03,28,13,13,229.40
2014,03,28,13,14,209.60
2014,03,28,13,15,201.20
2014,03,28,13,16,196.60
2014,03,28,13,17,190.20
2014,03,28,13,18,184.10
2014,03,28,13,19,170.60
2014,03,28,13,20,155.00
2014,03,28,13,21,145.10
2014,03,28,13,22,142.40
2014,03,28,13,23,148.00
2014,03,28,13,24,152.20
2014,03,28,13,25,163.10
2014,03,28,13,26,167.00
2014,03,28,13,27,175.90
2014,03,28,13,28,198.80
2014,03,28,13,29,223.50
2014,03,28,13,30,207.80
2014,03,28,13,31,194.10
2014,03,28,13,32,181.20
2014,03,28,13,33,158.90
2014,03,28,13,34,146.20
2014,03,28,13,35,149.00
2014,03,28,13,36,165.20
2014,03,28,13,37,180.40
2014,03,28,13,38,183.00
2014,03,28,13,39,189.80
2014,03,28,13,40,157.40
2014,03,28,13,41,171.80
2014,03,28,13,42,172.90
2014,03,28,13,43,174.80
2014,03,28,13,44,179.00
2014,03,28,13,45,172.50
2014,03,28,13,46,160.20
2014,03,28,13,47,149.90
2014,03,28,13,48,129.40
2014,03,28,13,49,133.20
2014,03,28,13,50,132.10
2014,03,28,13,51,134.00
2014,03,28,13,52,132.50
2014,03,28,13,53,127.80
2014,03,28,13,54,123.00
2014,03,28,13,55,127.00
2014,03,28,13,56,152.30
2014,03,28,13,57,168.40
2014,03,28,13,58,165.20
2014,03,28,13,59,177.60
2014,03,28,14,00,197.60
2014,03,28,14,01,218.50
2014,03,28,14,02,218.40
2014,03,28,14,03,210.80
2014,03,28,14,04,194.40
2014,03,28,14,05,194.10
2014,03,28,14,06,218.50
2014,03,28,14,07,229.80
2014,03,28,14,08,247.40
2014,03,28,14,09,287.70
2014,03,28,14,10,316.30
2014,03,28,14,11,319.50
2014,03,28,14,12,320.90
2014,03,28,14,13,307.60
2014,03,28,14,14,283.40
2014,03,28,14,15,283.40
2014,03,28,14,16,259.00
2014,03,28,14,17,236.00
2014,03,28,14,18,230.20
2014,03,28,14,19,236.00
2014,03,28,14,20,243.00
2014,03,28,14,21,282.60
2014,03,28,14,22,289.80
2014,03,28,14,23,285.80
2014,03,28,14,24,283.50
2014,03,28,14,25,260.10
2014,03,28,14,26,242.00
2014,03,28,14,27,231.20
2014,03,28,14,28,222.90
2014,03,28,14,29,204.30
2014,03,28,14,30,195.80
2014,03,28,14,31,173.00
2014,03,28,14,32,184.60
2014,03,28,14,33,181.50
2014,03,28,14,34,178.00
2014,03,28,14,35,177.10
2014,03,28,14,36,189.00
2014,03,28,14,37,184.40
2014,03,28,14,38,180.60
2014,03,28,14,39,207.50
2014,03,28,14,40,198.10
2014,03,28,14,41,210.80
2014,03,28,14,42,231.10
2014,03,28,14,43,257.20
2014,03,28,14,44,245.50
2014,03,28,14,45,193.40
2014,03,28,14,46,156.50
2014,03,28,14,47,154.10
2014,03,28,14,48,153.10
2014,03,28,14,49,156.00
2014,03,28,14,50,175.00
2014,03,28,14,51,209.10
2014,03,28,14,52,238.00
2014,03,28,14,53,257.30
2014,03,28,14,54,261.00
2014,03,28,14,55,287.00
2014,03,28,14,56,292.50
2014,03,28,14,57,257.30
2014,03,28,14,58,189.20
2014,03,28,14,59,178.00
2014,03,28,15,00,181.10
2014,03,28,15,01,183.00
2014,03,28,15,02,182.10
2014,03,28,15,03,180.10
2014,03,28,15,04,192.70
2014,03,28,15,05,213.10
2014,03,28,15,06,218.00
2014,03,28,15,07,228.80
2014,03,28,15,08,218.70
2014,03,28,15,09,210.10
2014,03,28,15,10,229.40
2014,03,28,15,11,241.00
2014,03,28,15,12,253.80
2014,03,28,15,13,282.90
2014,03,28,15,14,303.80
2014,03,28,15,15,338.00
2014,03,28,15,16,356.20
2014,03,28,15,17,419.40
2014,03,28,15,18,422.50
2014,03,28,15,19,387.70
2014,03,28,15,20,342.30
2014,03,28,15,21,297.20
2014,03,28,15,22,278.20
2014,03,28,15,23,268.70
2014,03,28,15,24,265.90
2014,03,28,15,25,256.30
2014,03,28,15,26,246.60
2014,03,28,15,27,253.20
2014,03,28,15,28,252.60
2014,03,28,15,29,270.30
2014,03,28,15,30,288.20
2014,03,28,15,31,297.20
2014,03,28,15,32,279.50
2014,03,28,15,33,266.00
2014,03,28,15,34,255.60
2014,03,28,15,35,231.10
2014,03,28,15,36,156.00
2014,03,28,15,37,130.00
2014,03,28,15,38,102.00
2014,03,28,15,39,101.30
2014,03,28,15,40,80.90
2014,03,28,15,41,105.80
2014,03,28,15,42,126.00
2014,03,28,15,43,105.20
2014,03,28,15,44,132.50
2014,03,28,15,45,160.30
2014,03,28,15,46,143.20
2014,03,28,15,47,144.60
2014,03,28,15,48,140.70
2014,03,28,15,49,105.50
2014,03,28,15,50,94.70
2014,03,28,15,51,100.00
2014,03,28,15,52,123.20
2014,03,28,15,53,160.00
2014,03,28,15,54,164.30
2014,03,28,15,55,153.80
2014,03,28,15,56,125.50
2014,03,28,15,57,101.50
2014,03,28,15,58,107.20
2014,03,28,15,59,118.10
2014,03,28,16,00,120.30
2014,03,28,16,01,106.50
2014,03,28,16,02,88.80
2014,03,28,16,03,74.20
2014,03,28,16,04,62.00
2014,03,28,16,05,55.00
2014,03,28,16,06,63.80
2014,03,28,16,07,79.80
2014,03,28,16,08,78.70
2014,03,28,16,09,70.00
2014,03,28,16,10,73.30
2014,03,28,16,11,63.00
2014,03,28,16,12,59.00
2014,03,28,16,13,73.70
2014,03,28,16,14,90.50
2014,03,28,16,15,115.00
2014,03,28,16,16,111.50
2014,03,28,16,17,79.20
2014,03,28,16,18,79.60
2014,03,28,16,19,93.40
2014,03,28,16,20,78.10
2014,03,28,16,21,57.20
2014,03,28,16,22,57.40
2014,03,28,16,23,68.10
2014,03,28,16,24,61.60
2014,03,28,16,25,58.00
2014,03,28,16,26,52.10
2014,03,28,16,27,52.70
2014,03,28,16,28,54.00
2014,03,28,16,29,57.00
2014,03,28,16,30,58.00
2014,03,28,16,31,46.80
2014,03,28,16,32,51.80
2014,03,28,16,33,61.20
2014,03,28,16,34,80.80
2014,03,28,16,35,79.90
2014,03,28,16,36,73.80
2014,03,28,16,37,73.80
2014,03,28,16,38,61.30
2014,03,28,16,39,66.10
2014,03,28,16,40,98.00
2014,03,28,16,41,134.20
2014,03,28,16,42,152.20
2014,03,28,16,43,119.30
2014,03,28,16,44,109.00
2014,03,28,16,45,167.20
2014,03,28,16,46,227.00
2014,03,28,16,47,206.90
2014,03,28,16,48,162.20
2014,03,28,16,49,155.60
2014,03,28,16,50,131.20
2014,03,28,16,51,122.40
2014,03,28,16,52,117.80
2014,03,28,16,53,119.60
2014,03,28,16,54,115.10
2014,03,28,16,55,109.00
2014,03,28,16,56,80.20
2014,03,28,16,57,70.10
2014,03,28,16,58,93.20
2014,03,28,16,59,118.40
2014,03,28,17,00,135.20
2014,03,28,17,01,130.10
2014,03,28,17,02,128.00
2014,03,28,17,03,141.60
2014,03,28,17,04,133.80
2014,03,28,17,05,125.50
2014,03,28,17,06,114.80
2014,03,28,17,07,102.60
2014,03,28,17,08,94.40
2014,03,28,17,09,87.20
2014,03,28,17,10,85.00
2014,03,28,17,11,77.80
2014,03,28,17,12,65.80
2014,03,28,17,13,49.20
2014,03,28,17,14,32.40
2014,03,28,17,15,26.00
2014,03,28,17,16,25.80
2014,03,28,17,17,24.20
2014,03,28,17,18,23.00
2014,03,28,17,19,20.80
2014,03,28,17,20,15.80
2014,03,28,17,21,14.00
2014,03,28,17,22,18.50
2014,03,28,17,23,27.00
2014,03,28,17,24,40.60
2014,03,28,17,25,44.00
2014,03,28,17,26,42.10